Regional Weather Roundup
Issued by NWS

Home | Current Version | Previous Version | Text Only | Print | Product List | Glossary On
Versions: 1 2 3 4 5 6 7 8 9 10 11 12 13 14 15 16 17 18 19 20 21 22 23 24 25 26 27 28 29 30 31 32 33 34 35 36 37 38 39 40 41 42 43 44 45 46 47 48 49 50
000
ASUS45 KBOU 192207
RWRCO

WEATHER ROUNDUP FOR COLORADO
NATIONAL WEATHER SERVICE DENVER/BOULDER CO
300 PM MST FRI DEC 19 2014

NOTE: "FAIR" INDICATES FEW OR NO CLOUDS BELOW 12000 FEET WITH NO
SIGNIFICANT WEATHER AND/OR OBSTRUCTIONS TO VISIBILITY.

COZ001>005-013-030-031-192300-
...NORTHWEST COLORADO...

CITY           SKY/WX    TMP DP  RH WIND       PRES   REMARKS
CRAIG          MOSUNNY   27  21  78 CALM      30.18S
HAYDEN         MOSUNNY   27  18  69 CALM      30.17S
MEEKER         PTSUNNY   27  20  75 CALM      30.17S
MOUNT WERNER   NOT AVBL
STEAMBOAT SPGS MOSUNNY   25  19  76 NW3       30.16S
WALDEN         SUNNY     25  14  63 S14G20    30.10R WCI  13
$$

COZ006>008-011-192300-
...WEST CENTRAL VALLEYS...

CITY           SKY/WX    TMP DP  RH WIND       PRES   REMARKS
GRAND JUNCTION PTSUNNY   38  27  64 N3        30.19F
MONTROSE       MOSUNNY   40  21  46 N5        30.21R
EAGLE          MOSUNNY   36  19  51 SW12      30.17S
RIFLE          PTSUNNY   37  25  61 W7        30.19F
DELTA          PTSUNNY   44  23  44 CALM      30.21S
NUCLA          MOSUNNY   37  23  56 NW5       30.23S
$$

COZ017>023-064>068-192300-
...SOUTHWEST COLORADO...

CITY           SKY/WX    TMP DP  RH WIND       PRES   REMARKS
DURANGO        MOSUNNY   34  22  61 CALM      30.16F
CORTEZ         SUNNY     40  27  59 W9        30.17S
PAGOSA SPRINGS MOSUNNY   32  19  57 CALM      30.17R
TELLURIDE      SUNNY     30  13  50 SW3       30.17R
WOLF CREEK PAS FOG       16  14  93 MISG      30.12R VSB 1
$$

COZ009-010-012-014-032>034-037-058>063-192300-
...CENTRAL COLORADO...

CITY           SKY/WX    TMP DP  RH WIND       PRES   REMARKS
ASPEN          SUNNY     31  15  52 CALM      30.14S
BUENA VISTA    SUNNY     37   6  28 NW21      30.06R
COPPER MTN     PTSUNNY   18  10  73 W10       30.09R WCI   6
BERTHOUD PASS  CLOUDY     7   1  78 MISG      30.05R
COTTONWOOD PAS SUNNY     32   1  27 W21G30    30.06R WCI  20
GUNNISON       PTSUNNY   30  14  51 N7        30.18S WCI  23
KREMMLING      PTSUNNY   32  18  55 S5        30.14S WCI  27
LEADVILLE      SUNNY     21   8  57 NW16      30.09R WCI   7
MONARCH PASS   CLOUDY    10   9  92 MISG      30.18S
SALIDA         SUNNY     37  13  38 SW15G26   30.15S
SUNLIGHT       MOSUNNY  N/A N/A N/A CALM      30.15R
WILKERSON PASS SUNNY     21   5  49 W9        30.05R WCI  11
$$

COZ069>075-192300-
...SAN LUIS VALLEY/SANGRE DE CRISTO MOUNTAINS...

CITY           SKY/WX    TMP DP  RH WIND       PRES   REMARKS
ALAMOSA        SUNNY     34  14  43 E6        30.12R WCI  29
LA VETA PASS   SUNNY     23  10  58 S20G29    30.04R WCI   8
SAGUACHE       SUNNY     34  10  37 NW17      30.12R WCI  23
$$

COZ035-036-038>040-192300-
...NORTHERN COLORADO FRONT RANGE...

CITY           SKY/WX    TMP DP  RH WIND       PRES   REMARKS
DENVER INTL AP MOSUNNY   45   9  23 S9        29.99S
DMNS CITY PARK   N/A     47   7  19 S3        29.99S
AURORA         MOSUNNY   45  10  23 SE10      30.00S
FRONT RANGE AP NOT AVBL
ERIE MUNI ARPT   N/A     49   5  16 S7        29.97S
BOULDER MUN AP SUNNY     48  10  21 CALM      29.97R
CENTENNIAL     MOSUNNY   43  11  27 S7        29.99F
BROOMFIELD     NOT AVBL
FORT COLLINS   SUNNY     46  18  31 E10       30.00S
LONGMONT       SUNNY     53  10  18 SE5       29.99R
$$

COZ041-046-047-076>085-087-088-192300-
...PIKES PEAK/PALMER DIVIDE AND SOUTHERN FOOTHILLS...

CITY           SKY/WX    TMP DP  RH WIND       PRES   REMARKS
COLO. SPRINGS  MOSUNNY   43  13  29 S9        30.02F
A. F. ACADEMY  SUNNY     43   8  24 S6        30.00F
ELLICOTT       NOT AVBL
FALCON         SUNNY     41   9  26 S8        30.02F
FORT CARSON    SUNNY     43  14  30 E3        30.02S
LIMON          SUNNY     44  20  38 CALM      30.02F
MONUMENT HILL  SUNNY     37  10  32 CALM      30.01S
TRINIDAD       SUNNY     46  16  30 SE6       30.03R
$$

COZ042>045-048>051-090-091-192300-
...NORTHEAST COLORADO...

CITY           SKY/WX    TMP DP  RH WIND       PRES   REMARKS
GREELEY ARPT   SUNNY     48  16  27 SE9       29.98S
AKRON          SUNNY     38  26  62 S10       30.01F
BURLINGTON     SUNNY     45  23  42 SW7       30.05R
WRAY           SUNNY     40  33  74 W3        30.04S
STERLING       SUNNY     32  28  86 S5        30.02R HAZE    WCI  27
HOLYOKE        SUNNY     37  30  75 W12       30.02
FORT MORGAN    SUNNY     35  26  67 CALM      30.02S
$$

COZ086-089-092>099-192300-
...SOUTHEAST COLORADO...

CITY           SKY/WX    TMP DP  RH WIND       PRES   REMARKS
PUEBLO         SUNNY     47  18  31 E7        30.02S
LA JUNTA       SUNNY     45  29  53 CALM      30.05R
LAMAR          SUNNY     45  31  58 SW5       30.05S
SPRINGFIELD      N/A     47  24  40 E9        30.04
$$



USA.gov is the U.S. government's official web portal to all federal, state and local government web resources and services.